Myrtle Beach, SC

1:03 PM EST on February 23, 2017 (GMT -0500)
Myrtle Beach International

Weather History for KMYR - April, 2014

Change the Weather History Date:

Friday, April 25, 2014

  Actual Average Record
Temperature  
Mean Temperature 68 °F -  
Max Temperature 75 °F 70 °F 84 °F (1991)
Min Temperature 60 °F 53 °F 41 °F (1993)
Cooling Degree Days 2    
Growing Degree Days 18 (Base 50)    
Moisture  
Dew Point 61 °F    
Average Humidity 81    
Maximum Humidity 94    
Minimum Humidity 69    
Precipitation  
Precipitation 0.00 in - - ()
Sea Level Pressure  
Sea Level Pressure 29.90 in    
Wind  
Wind Speed 6 mph (South)    
Max Wind Speed 24 mph    
Max Gust Speed 31 mph    
Visibility 10 miles    
Events      
Averages and records for this station are not official NWS values.
T = Trace of Precipitation, MM = Missing Value Source: NWS Daily Summary

Daily Weather History Graph

Daily Weather History Graph

Search for Another Location

Airport or City:

Trip Planner

Search our weather history database for the weather conditions in past years. The results will help you decide how hot, cold, wet, or windy it might be!

Date:

Astronomy

Apr. 25, 2014 Rise Set
Actual Time 6:33 AM EDT 7:54 PM EDT
Civil Twilight 6:07 AM EDT 8:20 PM EDT
Nautical Twilight 5:36 AM EDT 8:51 PM EDT
Astronomical Twilight 5:03 AM EDT 9:24 PM EDT
Moon 4:08 AM EDT (4/25) 4:24 PM EDT (4/25)
Length of Visible Light 14h 13m
Length of Day
13h 20m
Waning Crescent, 15% of the Moon is Illuminated
Apr 25
Waning Crescent
Apr 29
New
May 6
First Quarter
May 14
Full
May 21
Last Quarter

Hourly Weather History & Observations

Time (EDT) Temp. Dew Point Humidity Pressure Visibility Wind Dir Wind Speed Gust Speed Precip Events Conditions
12:15 AM 62.6 °F 57.2 °F 82% 30.01 in 10.0 mi East 5.8 mph - N/A   Clear
12:35 AM 62.6 °F 57.2 °F 82% 30.00 in 10.0 mi ESE 4.6 mph - N/A   Clear
12:55 AM 62.6 °F 57.2 °F 82% 30.00 in 10.0 mi ESE 4.6 mph - N/A   Clear
1:15 AM 62.6 °F 57.2 °F 82% 29.99 in 10.0 mi ESE 4.6 mph - N/A   Clear
1:35 AM 62.6 °F 57.2 °F 82% 29.98 in 10.0 mi ESE 5.8 mph - N/A   Clear
1:55 AM 60.8 °F 57.2 °F 88% 29.97 in 10.0 mi Calm Calm - N/A   Clear
2:15 AM 60.8 °F 57.2 °F 88% 29.97 in 10.0 mi Calm Calm - N/A   Clear
2:35 AM 62.6 °F 57.2 °F 82% 29.96 in 10.0 mi Calm Calm - N/A   Clear
2:55 AM 62.6 °F 59.0 °F 88% 29.95 in 10.0 mi Calm Calm - N/A   Clear
3:15 AM 60.8 °F 59.0 °F 94% 29.95 in 10.0 mi Calm Calm - N/A   Mostly Cloudy
3:35 AM 60.8 °F 57.2 °F 88% 29.96 in 10.0 mi Calm Calm - N/A   Scattered Clouds
3:55 AM 64.4 °F 60.8 °F 88% 29.96 in 10.0 mi SSE 8.1 mph - N/A   Scattered Clouds
4:15 AM 64.4 °F 60.8 °F 88% 29.96 in 10.0 mi SE 6.9 mph - N/A   Partly Cloudy
4:35 AM 64.4 °F 60.8 °F 88% 29.95 in 10.0 mi SSE 3.5 mph - N/A   Partly Cloudy
4:55 AM 64.4 °F 62.6 °F 94% 29.95 in 10.0 mi SE 3.5 mph - N/A   Mostly Cloudy
5:15 AM 64.4 °F 62.6 °F 94% 29.94 in 10.0 mi Calm Calm - N/A   Scattered Clouds
5:35 AM 66.2 °F 62.6 °F 88% 29.94 in 10.0 mi SSE 8.1 mph - N/A   Clear
6:45 AM 62.6 °F 60.8 °F 94% 29.95 in 10.0 mi SSE 6.9 mph - N/A   Scattered Clouds
7:45 AM 66.2 °F 64.4 °F 94% 29.96 in 10.0 mi SSE 6.9 mph - N/A   Scattered Clouds
8:45 AM 68.0 °F 64.4 °F 88% 29.94 in 10.0 mi SSE 9.2 mph - N/A   Clear
9:45 AM 73.4 °F 64.4 °F 73% 29.93 in 10.0 mi South 12.7 mph - N/A   Clear
10:45 AM 73.4 °F 64.4 °F 73% 29.93 in 10.0 mi South 12.7 mph - N/A   Clear
11:50 AM 73.4 °F 64.4 °F 73% 29.91 in 10.0 mi South 17.3 mph - N/A   Mostly Cloudy
12:45 PM 75.2 °F 64.4 °F 69% 29.89 in 10.0 mi SSW 17.3 mph - N/A   Mostly Cloudy
1:45 PM 75.2 °F 66.2 °F 73% 29.85 in 10.0 mi SSW 17.3 mph 26.5 mph N/A   Partly Cloudy
2:45 PM 75.2 °F 66.2 °F 73% 29.82 in 10.0 mi South 19.6 mph 31.1 mph N/A   Partly Cloudy
3:45 PM 73.4 °F 62.6 °F 69% 29.79 in 10.0 mi SSW 24.2 mph - N/A   Partly Cloudy
4:45 PM 71.6 °F 62.6 °F 73% 29.77 in 8.0 mi SSW 19.6 mph 29.9 mph N/A   Scattered Clouds
5:50 PM 73.4 °F 62.6 °F 69% 29.75 in 10.0 mi SSW 19.6 mph - N/A   Scattered Clouds
6:45 PM 71.6 °F 62.6 °F 73% 29.76 in 10.0 mi SSW 15.0 mph - N/A   Scattered Clouds
7:50 PM 71.6 °F 62.6 °F 73% 29.77 in 7.0 mi SSW 8.1 mph - N/A   Clear
8:45 PM 71.6 °F 62.6 °F 73% 29.79 in 10.0 mi Calm Calm - N/A   Clear
9:50 PM 71.6 °F 62.6 °F 73% 29.81 in 10.0 mi SSW 6.9 mph - N/A   Clear
10:55 PM 69.8 °F 60.8 °F 73% 29.84 in 10.0 mi Calm Calm - N/A   Clear
11:15 PM 69.8 °F 62.6 °F 78% 29.84 in 10.0 mi SW 4.6 mph - N/A   Scattered Clouds
11:35 PM 69.8 °F 62.6 °F 78% 29.84 in 10.0 mi WSW 3.5 mph - N/A   Mostly Cloudy
11:55 PM 69.8 °F 62.6 °F 78% 29.85 in 10.0 mi WSW 6.9 mph - N/A   Mostly Cloudy